ヒル彗星

P/2006 S6 ( Hill )

English version
Home page
Total 6,336 html files since Dec. 4, 1995
Updated on April 21, 2007

---------------------------------------------------------------------

・ プロフィール

発見日 2006年9月28日
発見光度 18.7等
発見者 R. E. Hill (Catalina Sky Survey)

・ 写真集

・ 軌道要素

The following orbital elements are taken from MPC 57948:

Epoch 2006 Nov. 1.0 TT = JDT 2454040.5
T 2006 Oct. 18.2574 TT                                  MPC
q   2.398306             (2000.0)            P               Q
n   0.1158357      Peri.   31.2465      +0.7646568      -0.6434354
a   4.167809       Node     9.0681      +0.5341850      +0.6016649
e   0.424564       Incl.   13.1770      +0.3604807      +0.4732760
P   8.51
From 111 observations 2006 Aug. 29-Oct. 30, mean residual 0".6.

・ 星図

・ 光度変化

        m1 = 10.8 + 5 logΔ + 15.0 log r

---------------------------------------------------------------------

軌道要素はMPCのEphemerides and Orbital Elementsに掲載されたものです。
光度グラフはComet for Windowsで作成したものです。

---------------------------------------------------------------------

Copyright(C) 1995-2008 Seiichi Yoshida (comet@aerith.net). All rights reserved.